Theta_e
357 357 350 345 341 341 347 350 345 343 322 325 331 332 329 332 335 338 339 340 340 339 335 327 331 329 327 326 326 330 331 333 334 334 334 335 334 330 330 330 329 345 340
357 356 345 341 339 343 345 350 346 334 322 328 331 330 330 336 337 337 339 340 339 338 332 326 325 325 326 326 326 328 331 335 340 342 344 344 345 344 339 331 330 340 338
359 356 349 339 339 344 347 349 346 324 324 330 332 332 333 336 341 341 341 340 336 335 328 327 327 327 327 329 336 342 343 343 342 341 344 349 351 347 345 342 335 332 331
358 355 351 340 341 345 348 348 342 324 328 331 332 336 339 339 339 340 341 334 332 331 333 333 332 336 340 342 342 342 342 340 340 339 346 348 343 345 343 341 342 341 334
355 351 352 339 344 345 348 346 330 327 331 333 333 337 338 338 336 335 331 334 336 336 338 339 336 337 340 340 340 340 340 339 338 340 348 344 345 343 340 333 340 347 348
352 349 348 339 344 346 346 343 329 332 335 334 335 335 335 334 331 329 333 337 339 341 341 339 338 337 338 338 338 338 338 338 337 340 339 342 341 341 339 334 327 329 339
349 349 348 338 340 344 344 338 335 337 338 335 334 333 330 328 330 332 334 337 340 342 341 340 340 340 340 340 339 339 338 336 334 336 335 337 337 337 334 331 330 328 328
349 350 348 338 337 338 340 337 338 339 336 334 334 333 330 327 332 334 336 337 339 340 338 337 337 337 336 334 332 331 330 327 332 332 333 335 335 335 335 335 335 335 335
350 346 344 344 343 337 338 339 339 338 334 334 332 333 331 328 327 328 330 332 332 331 331 330 330 330 329 327 325 324 324 325 328 332 334 333 336 337 338 339 339 339 342
350 347 343 342 342 342 344 337 336 334 333 332 333 330 327 326 326 326 326 326 327 327 326 325 325 324 324 324 323 325 328 324 330 337 334 335 336 337 337 338 342 342 340
350 347 343 341 339 337 339 341 334 333 332 332 334 332 329 340 338 333 340 340 325 325 325 324 329 336 338 340 340 338 338 340 337 337 337 338 338 338 337 337 338 339 343
350 347 344 342 340 338 337 339 339 340 339 341 342 337 340 340 341 342 338 328 328 334 330 341 343 344 344 346 341 342 343 340 339 339 339 338 339 339 338 339 342 342 341
351 347 345 344 342 340 340 337 339 341 342 344 345 342 342 339 339 336 340 342 342 339 343 344 344 345 345 344 343 342 341 341 340 340 340 340 341 340 341 340 344 347 342
351 347 346 347 345 343 342 340 340 338 341 342 342 343 344 340 341 340 337 338 339 342 344 344 343 345 347 345 344 344 345 345 344 343 343 342 341 342 343 340 335 341 340
352 350 348 349 349 347 344 343 342 342 342 342 344 343 341 338 340 339 339 336 336 339 343 345 345 346 346 345 345 347 345 346 346 344 344 343 344 344 341 340 337 339 341
354 352 350 351 350 349 348 347 347 346 346 345 345 346 344 339 341 338 338 336 335 340 345 347 352 352 351 348 348 350 348 345 346 345 344 345 345 343 341 340 338 339 336
355 354 353 352 352 352 350 350 350 348 347 346 346 348 343 343 342 340 340 339 343 348 350 353 352 351 349 348 348 348 345 343 344 345 346 345 344 342 340 332 327 327 329
356 355 355 353 353 353 352 351 349 347 346 346 345 345 343 343 346 349 349 350 350 351 351 351 350 350 347 347 346 345 344 344 343 343 344 343 341 337 335 322 320 318 325
355 355 354 353 353 353 353 351 348 350 347 343 341 342 344 346 347 350 349 350 351 349 347 344 343 343 343 345 344 343 342 342 343 341 339 340 332 324 319 320 320 322 324
355 355 354 353 353 353 352 352 348 349 342 341 345 348 351 350 350 352 352 352 349 344 342 343 343 345 345 345 343 341 342 341 344 334 335 335 327 320 318 320 322 321 321
354 354 352 351 352 354 352 350 345 340 340 347 351 354 353 352 352 352 348 345 342 341 343 343 343 344 343 341 340 337 334 343 338 323 331 328 322 319 320 320 320 321 320
353 352 350 350 352 352 349 342 338 339 349 349 351 350 348 346 346 345 346 344 343 343 342 341 340 340 339 336 332 330 330 328 325 322 321 320 321 320 320 320 319 319 319
352 351 350 350 351 349 342 349 352 352 349 350 349 348 343 342 342 342 341 340 340 341 338 333 331 329 327 326 324 322 323 323 322 320 319 320 320 320 320 320 319 319 318
350 350 349 349 349 347 350 352 353 351 350 349 345 340 338 339 338 337 335 333 331 330 328 325 324 322 322 320 319 319 322 323 324 322 320 320 319 320 320 319 319 317 316
349 348 349 348 348 349 351 350 351 349 349 347 342 339 335 332 330 328 327 326 325 324 323 323 323 322 320 319 319 318 318 319 320 321 322 320 317 318 319 318 317 316 315
348 348 348 348 349 349 349 351 351 349 345 343 340 336 333 329 326 325 323 322 322 321 322 321 321 321 321 320 320 318 319 319 320 320 320 320 318 317 317 319 316 316 316
Wind_Speed
24 27 26 23 20 20 23 23 21 18 19 21 21 19 19 19 18 17 14 12 10 9 8 7 7 7 6 6 6 6 6 5 5 5 5 5 6 7 6 6 6 8 6
26 26 26 24 22 20 23 25 22 20 20 21 20 19 17 17 16 14 13 10 8 7 6 7 7 7 6 6 5 5 4 3 3 5 6 7 6 4 9 7 5 6 9
25 25 24 22 22 21 24 26 23 22 22 20 18 18 16 16 14 12 11 9 7 6 6 6 6 5 5 5 4 2 2 3 5 7 8 12 12 4 10 11 9 8 9
24 25 21 22 21 22 24 26 24 24 23 21 19 16 14 13 12 11 9 7 7 6 6 6 5 4 3 2 0 2 3 5 7 9 13 12 8 4 9 12 13 12 12
24 25 22 24 21 22 25 26 25 24 21 20 18 15 13 12 11 10 9 8 7 7 6 5 4 3 2 2 3 5 6 8 10 13 16 10 9 10 9 15 13 14 15
24 25 23 25 23 24 24 24 24 23 20 18 16 14 13 12 12 11 10 9 8 6 5 3 2 2 3 5 6 8 10 12 14 15 17 11 11 10 13 19 17 13 15
25 24 24 25 23 23 23 23 23 22 19 17 15 14 13 12 12 12 10 9 7 5 2 1 2 5 6 8 9 11 13 14 15 16 15 13 14 12 17 17 16 15 15
24 23 24 25 22 21 21 22 22 20 18 17 15 13 12 12 11 10 9 7 5 3 2 3 6 8 10 12 14 15 16 17 16 17 17 15 15 14 14 15 15 15 16
23 24 23 21 20 20 20 21 21 19 18 17 14 13 11 11 10 9 7 5 4 3 4 5 8 10 12 14 15 16 17 18 18 17 16 15 9 7 15 17 17 17 19
23 23 24 22 20 19 17 19 19 19 18 16 14 12 11 9 8 6 4 3 3 4 5 6 8 11 13 15 15 15 16 19 18 17 16 13 7 12 16 18 18 19 20
23 23 24 25 22 22 21 18 19 18 17 16 13 11 9 8 6 4 6 5 4 4 5 6 8 11 13 15 15 11 15 13 15 16 18 11 9 12 17 18 18 19 20
26 25 26 25 24 23 21 21 17 16 14 13 11 11 8 7 6 4 4 2 2 4 5 4 7 13 12 12 16 9 13 18 19 18 17 10 11 15 19 19 16 15 16
28 26 25 25 24 23 22 21 17 15 14 12 11 10 5 7 6 5 6 6 2 4 5 5 9 10 13 15 16 16 17 19 21 19 17 14 13 17 18 18 17 16 18
28 28 27 24 22 22 21 21 18 16 14 12 12 10 8 7 6 4 4 1 4 0 5 6 9 10 11 14 14 16 18 20 22 21 20 16 20 15 13 16 17 16 18
27 26 27 25 23 19 22 18 16 14 13 12 11 11 9 8 6 6 3 4 3 2 3 5 7 9 11 12 14 16 17 17 18 21 21 23 13 9 15 15 16 16 17
25 24 25 25 21 20 17 16 15 13 11 11 10 10 8 7 6 6 6 5 3 3 4 5 5 5 8 13 15 15 18 19 17 20 21 23 7 12 10 14 15 16 16
25 27 25 25 22 20 18 17 15 13 13 11 10 8 8 7 6 5 5 5 3 2 4 7 9 7 5 2 14 17 22 24 24 22 17 15 14 12 13 15 19 21 16
24 23 23 21 20 20 19 17 14 13 11 10 8 9 9 8 8 7 6 5 4 2 4 6 7 8 10 10 7 15 19 18 18 17 9 12 12 15 12 22 24 22 14
26 25 25 23 23 21 19 16 14 12 10 10 9 9 9 9 9 8 7 6 4 3 3 6 5 7 10 12 18 17 17 15 11 15 13 7 13 15 19 20 21 17 13
28 26 26 21 19 19 18 15 15 14 11 10 9 8 9 9 9 7 6 4 2 4 8 8 9 8 11 14 15 16 20 22 5 13 13 14 14 17 15 16 16 16 18
28 28 25 23 22 21 21 19 17 17 15 11 9 8 6 4 3 2 1 0 4 7 9 9 10 8 11 15 14 19 19 4 8 19 11 11 15 17 14 15 16 16 18
27 26 24 24 25 22 21 20 19 17 14 12 10 8 7 5 5 5 3 4 7 7 6 8 10 10 11 14 13 13 6 10 17 13 11 13 18 15 15 14 14 17 18
30 30 28 26 25 22 21 16 15 16 14 13 11 10 6 4 4 4 4 3 5 4 7 10 11 13 10 13 13 8 5 5 16 13 15 12 18 16 14 14 15 18 18
30 29 29 27 25 22 21 18 17 17 16 10 14 12 10 10 10 10 11 10 10 7 10 10 10 10 13 13 9 9 6 5 4 6 17 17 18 14 13 16 16 21 20
32 30 28 29 26 24 21 19 19 13 13 15 13 13 12 11 12 11 12 11 10 9 12 11 10 13 15 10 9 9 9 5 7 10 9 16 20 17 14 15 19 18 23
31 31 27 29 26 24 18 15 12 10 18 14 12 12 11 10 11 10 10 10 9 9 10 9 12 16 13 11 9 10 10 10 10 12 9 13 16 18 18 14 23 20 25
Wind_Direction
146 160 165 166 168 173 173 173 166 159 154 154 148 143 140 141 142 140 136 132 129 120 115 115 114 112 107 104 104 101 91 71 47 27 15 12 8 1 352 343 345 339 284
146 158 165 167 166 175 174 173 166 159 157 156 149 146 146 145 145 144 141 135 127 120 116 114 113 114 115 114 107 99 83 54 11 349 336 292 277 342 339 331 326 277 295
146 157 159 169 166 172 174 171 166 161 159 156 152 149 148 150 149 145 141 136 134 133 125 119 113 111 111 115 103 75 32 354 335 328 311 290 238 284 320 315 305 297 291
149 155 156 168 168 172 172 169 166 163 161 157 155 150 149 150 151 146 145 139 135 125 114 107 104 111 105 102 90 321 315 313 314 316 299 285 322 282 326 320 300 292 291
151 153 160 166 169 170 168 167 166 164 162 158 156 151 151 149 147 143 142 137 127 117 112 112 122 150 174 215 273 288 291 298 304 300 290 313 327 288 315 318 303 294 291
153 154 165 166 170 170 169 168 167 165 163 158 156 150 149 150 145 142 140 134 128 128 132 144 166 219 261 279 289 294 297 300 304 301 302 305 305 273 299 299 294 291 276
156 152 157 169 171 174 173 170 170 168 163 158 153 148 148 148 145 144 144 145 145 147 161 222 271 278 281 286 287 289 292 297 300 297 296 293 290 287 300 299 300 295 292
153 150 154 169 171 173 174 173 174 170 164 158 155 149 147 148 149 149 151 155 158 181 229 281 291 292 295 295 295 296 297 297 298 296 295 291 287 283 301 307 303 298 296
154 151 153 156 164 173 171 173 174 171 164 160 155 150 150 150 154 158 166 175 195 236 265 282 291 295 297 296 296 296 297 299 296 289 286 292 269 296 314 310 303 301 303
156 154 155 155 155 159 159 174 173 168 163 159 156 152 149 152 152 151 154 169 223 243 270 283 292 298 302 301 301 308 313 305 290 271 291 294 265 300 320 316 312 310 310
164 159 160 157 158 156 153 162 163 164 163 158 156 153 150 147 155 185 183 223 249 274 287 307 315 316 310 309 298 299 315 288 293 310 303 299 311 324 325 321 317 317 319
170 167 163 161 159 154 153 155 158 165 163 159 160 163 172 149 160 135 186 233 275 335 298 317 324 326 303 300 325 302 287 313 311 307 305 307 316 327 328 322 319 319 314
172 171 164 160 166 158 152 156 162 169 168 169 165 169 162 174 169 196 209 216 229 296 299 325 304 302 340 318 320 317 317 314 314 314 316 319 324 323 324 321 322 321 317
166 171 164 159 167 166 154 162 166 172 171 173 175 175 175 188 192 231 236 269 231 212 332 312 319 331 312 322 314 315 320 322 322 314 307 314 315 308 317 321 315 312 321
166 169 170 164 171 162 158 163 168 164 172 165 169 179 187 197 195 213 210 243 269 288 309 321 309 330 315 311 326 327 318 319 320 311 311 302 305 346 339 340 342 336 335
165 163 164 167 171 166 166 155 160 164 159 169 174 182 189 192 189 205 215 223 229 241 257 265 319 316 337 337 331 333 322 313 321 314 311 319 324 346 351 357 357 360 353
160 170 164 168 170 167 160 158 164 168 173 182 176 170 184 192 188 211 208 202 195 255 291 303 307 298 271 17 344 328 328 323 324 325 328 328 7 10 358 4 0 348 344
152 157 163 162 171 170 158 162 173 168 183 183 180 182 185 187 180 184 193 190 222 244 268 282 304 324 325 356 25 327 325 319 325 324 352 4 359 2 4 358 347 342 342
154 163 169 167 170 171 161 167 173 159 181 181 183 185 181 182 186 193 197 210 226 266 306 335 330 330 326 350 346 340 328 322 343 28 355 27 26 4 343 345 343 359 4
156 164 167 161 169 175 158 170 167 174 174 174 175 182 184 187 194 201 219 227 235 288 316 315 305 318 337 353 358 337 316 305 13 14 341 358 16 354 347 348 350 343 346
163 164 162 166 172 170 157 182 164 171 170 166 170 176 173 175 177 175 168 246 338 331 332 330 314 345 11 14 3 346 318 156 112 7 14 359 11 350 351 351 347 342 341
164 164 165 165 167 161 173 177 175 173 155 168 157 130 95 81 83 59 19 328 329 342 11 13 5 5 34 36 14 332 342 325 9 348 2 357 0 349 354 349 349 346 345
168 165 162 160 162 168 170 160 143 129 147 169 156 125 84 87 73 71 51 50 26 23 47 39 31 31 30 40 29 14 338 360 325 358 4 1 352 348 352 341 353 348 350
167 164 160 156 160 167 165 163 164 169 177 187 133 115 90 86 81 78 79 70 70 62 56 45 34 35 43 36 18 13 14 358 354 331 341 352 355 343 359 345 351 347 350
168 159 156 155 161 161 171 168 173 179 154 125 111 112 105 90 83 75 72 67 62 59 56 49 44 44 47 35 32 19 17 12 13 338 326 342 352 349 355 351 354 350 350
157 148 159 159 163 163 167 167 179 147 121 125 135 134 123 106 91 78 73 71 70 67 62 54 52 52 53 48 39 36 29 19 359 346 334 343 342 338 356 0 351 349 349